This demonstration page uses our WeatherBlox Daily Observations layout. Learn more.

40.92945, -100.16068

Hourly Observations for March 27, 2020

Temp ( °F °C ) Dew Point ( °F °C ) Humidity (%) Winds ( mph kmh ) Pressure ( in mb ) Visibility ( mi km ) Precip ( " mm )
12:15 am 00:15 Cloudy with Mist and Fog 41 5.1 41 5.1 100 100 NNE 10 17 29.81 1009 4 6.43736 0 0
12:35 am 00:35 Cloudy with Mist and Fog 41 5.1 41 5.1 100 100 NE 10 17 29.81 1009 4 6.43736 0 0
12:55 am 00:55 Cloudy with Mist and Fog 41 5.1 41 5.1 100 100 NE 10 17 29.82 1010 4 6.43736 0 0
1:15 am 01:15 Cloudy with Mist and Fog 41 5.1 41 5.1 100 100 NE 9 15 29.82 1010 4 6.43736 0 0
1:35 am 01:35 Cloudy with Mist and Fog 41 5.2 41 5.2 100 100 NE 9 15 29.82 1010 4 6.43736 0 0
1:55 am 01:55 Cloudy with Mist and Fog 42 5.3 42 5.3 100 100 NE 8 13 29.8 1009 4 6.43736 0 0
2:15 am 02:15 Cloudy with Mist and Fog 42 5.4 42 5.3 99 99 NE 9 15 29.8 1009 5 8.0467 0 0
2:35 am 02:35 Cloudy with Mist and Fog 42 5.5 42 5.5 100 100 ENE 9 15 29.8 1009 5 8.0467 0 0
2:55 am 02:55 Cloudy with Mist and Fog 42 5.5 42 5.5 100 100 ENE 8 13 29.8 1009 5 8.0467 0 0
3:15 am 03:15 Cloudy with Mist and Fog 42 5.5 42 5.5 100 100 NE 8 13 29.79 1009 5 8.0467 0 0
3:35 am 03:35 Cloudy with Mist and Fog 42 5.5 42 5.5 100 100 NE 7 11 29.79 1009 4 6.43736 0 0
3:55 am 03:55 Cloudy with Mist and Fog 42 5.5 42 5.5 100 100 ENE 6 9 29.78 1009 4 6.43736 0 0
4:15 am 04:15 Cloudy with Mist and Fog 42 5.6 42 5.5 99 99 ENE 6 9 29.78 1009 4 6.43736 0 0
4:35 am 04:35 Cloudy with Mist and Fog 42 5.6 42 5.6 100 100 NE 5 7 29.79 1009 4 6.43736 0 0
4:55 am 04:55 Cloudy with Mist and Fog 42 5.6 42 5.6 100 100 NE 5 7 29.78 1009 4 6.43736 0 0
5:15 am 05:15 Cloudy with Mist and Fog 42 5.6 42 5.6 100 100 NNE 6 9 29.78 1009 3 4.82802 0 0
5:35 am 05:35 Cloudy with Mist and Fog 42 5.5 42 5.5 100 100 NNE 6 9 29.78 1009 4 6.43736 0 0
5:55 am 05:55 Cloudy with Mist and Fog 42 5.5 42 5.5 100 100 NNE 6 9 29.78 1009 3 4.82802 0 0
6:15 am 06:15 Cloudy with Mist and Fog 42 5.5 42 5.5 100 100 NE 6 9 29.78 1009 3 4.82802 0 0
6:35 am 06:35 Cloudy with Mist and Fog 42 5.5 42 5.5 100 100 NE 8 13 29.78 1009 2.5 4.02335 0 0
6:55 am 06:55 Cloudy with Mist and Fog 42 5.3 42 5.3 100 100 NE 7 11 29.77 1008 1.75 2.816345 0 0
7:15 am 07:15 Cloudy with Mist and Fog 42 5.3 42 5.3 100 100 NNE 9 15 29.77 1008 1.25 2.011675 0 0
7:35 am 07:35 Cloudy with Mist and Fog 42 5.3 42 5.3 100 100 NNE 7 11 29.8 1009 1.5 2.41401 0 0
7:55 am 07:55 Cloudy with Mist and Fog 41 5.2 41 5.2 100 100 NE 9 15 29.8 1009 1.5 2.41401 0 0
8:15 am 08:15 Cloudy with Mist and Fog 42 5.3 42 5.3 100 100 NNE 6 9 29.78 1009 2 3.21868 0 0
8:35 am 08:35 Cloudy with Mist and Fog 41 5.2 41 5.2 100 100 NNE 8 13 29.79 1009 3 4.82802 0 0
8:55 am 08:55 Cloudy with Mist and Fog 42 5.3 42 5.3 100 100 NNE 6 9 29.8 1009 2.5 4.02335 0 0
9:15 am 09:15 Cloudy with Mist and Fog 42 5.5 42 5.5 100 100 NNE 6 9 29.79 1009 2 3.21868 0 0
9:35 am 09:35 Cloudy with Mist and Fog 42 5.5 42 5.5 100 100 NNE 8 13 29.8 1009 3 4.82802 0 0
9:55 am 09:55 Cloudy with Mist and Fog 42 5.6 42 5.5 99 99 NE 5 7 29.81 1010 3 4.82802 0 0
10:15 am 10:15 Cloudy with Light Drizzle 42 5.6 42 5.6 100 100 NNE 6 9 29.83 1010 2 3.21868 0 0
10:35 am 10:35 Cloudy with Mist and Fog 42 5.8 42 5.8 100 100 NE 7 11 29.8 1009 2 3.21868 0 0
10:55 am 10:55 Cloudy with Mist and Fog 42 5.8 42 5.6 99 99 NNE 9 15 29.81 1009 3 4.82802 0 0
11:15 am 11:15 Cloudy with Mist and Fog 42 5.8 42 5.5 98 98 NE 9 15 29.81 1009 4 6.43736 0 0
11:35 am 11:35 Cloudy with Mist and Fog 43 5.9 42 5.5 97 97 NNE 7 11 29.81 1009 2.5 4.02335 0 0
11:55 am 11:55 Cloudy with Mist and Fog 43 6 42 5.7 98 98 NE 8 13 29.8 1009 4 6.43736 0 0
12:15 pm 12:15 Cloudy with Mist and Fog 43 6.2 43 6 99 99 NE 8 13 29.8 1009 4 6.43736 0 0
12:35 pm 12:35 Cloudy with Mist and Fog 43 6.3 43 6 98 98 NNE 8 13 29.78 1008 5 8.0467 0 0
12:55 pm 12:55 Cloudy with Mist and Fog 43 6.1 43 6 99 99 NNE 6 9 29.78 1008 2.5 4.02335 0 0
1:15 pm 13:15 Cloudy with Mist and Fog 43 6.3 43 6.1 99 99 NE 8 13 29.78 1008 4 6.43736 0 0
1:35 pm 13:35 Cloudy with Mist and Fog 44 6.6 43 6.3 98 98 NE 8 13 29.75 1008 4 6.43736 0 0
1:55 pm 13:55 Cloudy with Mist and Fog 44 6.5 44 6.4 99 99 NE 6 9 29.77 1008 3 4.82802 0 0
2:15 pm 14:15 Cloudy with Mist and Fog 44 6.6 44 6.5 99 99 NE 7 11 29.75 1008 3 4.82802 0 0
2:35 pm 14:35 Cloudy with Mist and Fog 44 6.9 44 6.5 97 97 NNE 7 11 29.74 1007 4 6.43736 0 0
2:55 pm 14:55 Cloudy with Mist and Fog 44 6.8 44 6.6 99 99 ENE 8 13 29.73 1007 4 6.43736 0 0
3:15 pm 15:15 Cloudy with Mist and Fog 45 7 44 6.4 96 96 ENE 6 9 29.72 1006 5 8.0467 0 0
3:35 pm 15:35 Cloudy with Mist and Fog 45 7 44 6.6 97 97 NE 6 9 29.72 1006 4 6.43736 0 0
3:55 pm 15:55 Cloudy with Mist and Fog 45 7.2 44 6.9 98 98 NE 6 9 29.71 1006 3 4.82802 0 0
4:15 pm 16:15 Cloudy 46 7.5 44 6.9 96 96 NE 5 7 29.69 1006 7 11.26538 0 0
4:35 pm 16:35 Cloudy 46 8 45 7.1 94 94 N 6 9 29.68 1005 10 16.0934 0 0
4:55 pm 16:55 Cloudy 46 8 45 7.1 94 94 NE 6 9 29.68 1005 10 16.0934 0 0
5:15 pm 17:15 Cloudy 47 8.5 46 7.5 94 94 NNE 6 9 29.67 1005 10 16.0934 0 0
5:35 pm 17:35 Cloudy 47 8.3 46 7.5 95 95 ENE 7 11 29.68 1005 10 16.0934 0 0
5:55 pm 17:55 Cloudy 47 8.2 46 7.5 95 95 NE 8 13 29.69 1005 10 16.0934 0 0
6:15 pm 18:15 Cloudy 47 8.1 46 7.5 96 96 ENE 8 13 29.69 1005 10 16.0934 0 0
6:35 pm 18:35 Cloudy 46 8 45 7.3 95 95 ENE 8 13 29.68 1005 7 11.26538 0 0
6:55 pm 18:55 Cloudy 46 7.8 45 7.3 97 97 ENE 8 13 29.68 1005 7 11.26538 0 0
7:15 pm 19:15 Cloudy 46 7.7 45 7.3 97 97 E 7 11 29.69 1005 7 11.26538 0 0
7:35 pm 19:35 Cloudy with Mist and Fog 46 7.5 45 7.2 98 98 E 7 11 29.7 1006 5 8.0467 0 0
7:55 pm 19:55 Cloudy with Mist and Fog 46 7.5 45 7.1 97 97 E 8 13 29.69 1006 5 8.0467 0 0
8:15 pm 20:15 Cloudy 45 7.3 45 7 98 98 ENE 8 13 29.7 1006 10 16.0934 0 0
8:35 pm 20:35 Cloudy 45 7.1 44 6.9 99 99 E 9 15 29.71 1006 7 11.26538 0 0
8:55 pm 20:55 Cloudy 44 6.8 44 6.7 99 99 ENE 10 17 29.72 1006 7 11.26538 0 0
9:15 pm 21:15 Cloudy with Mist and Fog 44 6.7 44 6.6 99 99 ENE 7 11 29.73 1007 5 8.0467 0 0
9:35 pm 21:35 Cloudy with Mist and Fog 44 6.6 44 6.6 100 100 ENE 8 13 29.74 1007 4 6.43736 0 0
9:55 pm 21:55 Cloudy with Mist and Fog 44 6.4 44 6.4 100 100 ENE 9 15 29.73 1007 5 8.0467 0 0
10:15 pm 22:15 Cloudy with Mist and Fog 43 6.2 43 6.2 100 100 NE 12 19 29.73 1007 5 8.0467 0 0
10:35 pm 22:35 Cloudy 43 6.1 43 6.1 100 100 NE 9 15 29.74 1007 10 16.0934 0 0
10:55 pm 22:55 Cloudy with Light Rain 43 6.1 43 6 99 99 E 7 11 29.75 1007 7 11.26538 0 0
11:15 pm 23:15 Cloudy with Light Rain 43 6 43 6 100 100 ENE 8 13 29.74 1007 5 8.0467 0.02 0.508
11:35 pm 23:35 Cloudy with Light Rain 42 5.7 42 5.7 100 100 NE 14 22 29.69 1005 7 11.26538 0.04 1.016
11:55 pm 23:55 Cloudy 42 5.5 42 5.5 100 100 NE 13 20 29.66 1004 10 16.0934 0.05 1.27

Powered by AerisWeather